When you browse on this site, cookies collect data to enhance your experience and personalize the content and advertising you see.
Visit our Privacy Policy to learn more. By continuing to use the site, you agree to this use of cookies and data.

Hourly Weather Preili

Today, 15 July, Wednesday

Time Temperature Precipitation Wind Pressure Humidity
00:00 +12°C° 0 mm 1 mps 749 mmHg 88%
01:00 +12°C° 0 mm 1 mps 749 mmHg 88%
02:00 +10°C° 0 mm 2 mps 749 mmHg 88%
03:00 +10°C° 0 mm 2 mps 749 mmHg 86%
04:00 +9°C° 0 mm 2 mps 749 mmHg 84%
05:00 +9°C° 0 mm 2 mps 749 mmHg 82%
06:00 +12°C° 0 mm 2 mps 749 mmHg 76%
07:00 +14°C° 0 mm 2 mps 749 mmHg 71%
08:00 +15°C° 0 mm 2 mps 749 mmHg 66%
09:00 +17°C° 0 mm 3 mps 749 mmHg 62%
10:00 +18°C° 0 mm 3 mps 749 mmHg 58%
11:00 +19°C° 0 mm 3 mps 748 mmHg 55%
12:00 +20°C° 0 mm 3 mps 748 mmHg 53%
13:00 +20°C° 0 mm 3 mps 748 mmHg 52%
14:00 +21°C° 0 mm 3 mps 748 mmHg 50%
15:00 +21°C° 0 mm 3 mps 748 mmHg 52%
16:00 +21°C° 0 mm 3 mps 748 mmHg 54%
17:00 +21°C° 0 mm 3 mps 748 mmHg 56%
18:00 +19°C° 0 mm 2 mps 748 mmHg 62%
19:00 +18°C° 0 mm 2 mps 748 mmHg 68%
20:00 +18°C° 0 mm 1 mps 747 mmHg 74%
21:00 +16°C° 0 mm 1 mps 747 mmHg 76%
22:00 +15°C° 0 mm 1 mps 748 mmHg 77%
23:00 +13°C° 0 mm 1 mps 748 mmHg 79%

Tomorrow, 16 July, Thursday

Time Temperature Precipitation Wind Pressure Humidity
00:00 +13°C° 0 mm 1 mps 748 mmHg 79%
01:00 +13°C° 0 mm 1 mps 748 mmHg 80%
02:00 +12°C° 0 mm 2 mps 748 mmHg 81%
03:00 +12°C° 0 mm 1 mps 748 mmHg 82%
04:00 +12°C° 0 mm 1 mps 747 mmHg 83%
05:00 +12°C° 0 mm 1 mps 747 mmHg 84%
06:00 +14°C° 0 mm 1 mps 747 mmHg 79%
07:00 +15°C° 0 mm 2 mps 747 mmHg 74%
08:00 +17°C° 0 mm 2 mps 747 mmHg 69%
09:00 +19°C° 0 mm 2 mps 747 mmHg 63%
10:00 +20°C° 0 mm 2 mps 747 mmHg 57%
11:00 +21°C° 0 mm 2 mps 747 mmHg 52%
12:00 +23°C° 0 mm 2 mps 747 mmHg 49%
13:00 +24°C° 0 mm 2 mps 747 mmHg 47%
14:00 +24°C° 0 mm 2 mps 747 mmHg 45%
15:00 +24°C° 0 mm 2 mps 747 mmHg 47%
16:00 +24°C° 0 mm 2 mps 747 mmHg 49%
17:00 +24°C° 0 mm 2 mps 747 mmHg 51%
18:00 +23°C° 0 mm 2 mps 747 mmHg 58%
19:00 +21°C° 0 mm 1 mps 747 mmHg 66%
20:00 +19°C° 0 mm 1 mps 747 mmHg 74%
21:00 +18°C° 0 mm 1 mps 747 mmHg 77%
22:00 +16°C° 0 mm 1 mps 748 mmHg 80%
23:00 +15°C° 0 mm 1 mps 748 mmHg 83%

Day after tomorrow, 17 July, Friday

Time Temperature Precipitation Wind Pressure Humidity
00:00 +14°C° 0 mm 1 mps 748 mmHg 84%
01:00 +13°C° 0 mm 1 mps 748 mmHg 85%
02:00 +13°C° 0 mm 1 mps 748 mmHg 86%
03:00 +13°C° 0 mm 1 mps 749 mmHg 87%
04:00 +13°C° 0 mm 1 mps 749 mmHg 87%
05:00 +13°C° 0 mm 1 mps 749 mmHg 88%
06:00 +15°C° 0 mm 1 mps 749 mmHg 80%
07:00 +18°C° 0 mm 1 mps 749 mmHg 72%
08:00 +20°C° 0 mm 1 mps 750 mmHg 65%
09:00 +21°C° 0 mm 1 mps 750 mmHg 60%
10:00 +23°C° 0 mm 2 mps 750 mmHg 54%
11:00 +24°C° 0 mm 2 mps 750 mmHg 49%
12:00 +24°C° 0 mm 2 mps 750 mmHg 48%
13:00 +25°C° 0 mm 2 mps 750 mmHg 47%
14:00 +25°C° 0 mm 1 mps 750 mmHg 45%
15:00 +25°C° 0 mm 1 mps 750 mmHg 47%
16:00 +25°C° 0 mm 1 mps 750 mmHg 48%
17:00 +25°C° 0 mm 1 mps 750 mmHg 50%
18:00 +24°C° 0 mm 1 mps 750 mmHg 57%
19:00 +22°C° 0 mm 1 mps 750 mmHg 64%
20:00 +20°C° 0 mm 1 mps 750 mmHg 71%
21:00 +19°C° 0 mm 1 mps 751 mmHg 73%
22:00 +18°C° 0 mm 1 mps 751 mmHg 75%
23:00 +16°C° 0 mm 1 mps 751 mmHg 77%

18 July, Saturday

Time Temperature Precipitation Wind Pressure Humidity
00:00 +15°C° 0 mm 1 mps 752 mmHg 78%
01:00 +15°C° 0 mm 1 mps 752 mmHg 79%
02:00 +14°C° 0 mm 1 mps 752 mmHg 79%
03:00 +14°C° 0 mm 1 mps 752 mmHg 80%
04:00 +14°C° 0 mm 1 mps 752 mmHg 80%
05:00 +14°C° 0 mm 1 mps 752 mmHg 81%
06:00 +16°C° 0 mm 1 mps 753 mmHg 75%
07:00 +19°C° 0 mm 1 mps 753 mmHg 70%
08:00 +22°C° 0 mm 1 mps 753 mmHg 64%
09:00 +23°C° 0 mm 1 mps 753 mmHg 59%
10:00 +24°C° 0 mm 1 mps 753 mmHg 53%
11:00 +26°C° 0 mm 1 mps 753 mmHg 48%
12:00 +26°C° 0 mm 2 mps 753 mmHg 47%
13:00 +26°C° 0 mm 2 mps 753 mmHg 46%
14:00 +26°C° 0 mm 2 mps 752 mmHg 45%
15:00 +26°C° 0 mm 2 mps 752 mmHg 46%
16:00 +26°C° 0 mm 2 mps 752 mmHg 47%
17:00 +26°C° 0 mm 2 mps 752 mmHg 48%
18:00 +24°C° 0 mm 2 mps 752 mmHg 55%
19:00 +22°C° 0 mm 1 mps 752 mmHg 61%
20:00 +20°C° 0 mm 1 mps 752 mmHg 68%
21:00 +19°C° 0 mm 1 mps 752 mmHg 69%
22:00 +18°C° 0 mm 1 mps 752 mmHg 71%
23:00 +16°C° 0 mm 1 mps 753 mmHg 72%

19 July, Sunday

Time Temperature Precipitation Wind Pressure Humidity
00:00 +16°C° 0 mm 1 mps 753 mmHg 73%
01:00 +15°C° 0 mm 1 mps 753 mmHg 75%
02:00 +15°C° 0 mm 1 mps 753 mmHg 77%
03:00 +15°C° 0 mm 1 mps 753 mmHg 78%
04:00 +15°C° 0 mm 1 mps 753 mmHg 79%
05:00 +15°C° 0 mm 1 mps 753 mmHg 79%
06:00 +18°C° 0 mm 1 mps 753 mmHg 75%
07:00 +20°C° 0 mm 1 mps 753 mmHg 71%
08:00 +22°C° 0 mm 1 mps 753 mmHg 66%
09:00 +23°C° 0 mm 1 mps 753 mmHg 61%
10:00 +24°C° 0 mm 1 mps 753 mmHg 57%
11:00 +26°C° 0 mm 1 mps 753 mmHg 52%
12:00 +26°C° 0 mm 1 mps 752 mmHg 51%
13:00 +27°C° 0 mm 2 mps 752 mmHg 50%
14:00 +27°C° 0 mm 2 mps 752 mmHg 49%
15:00 +27°C° 0 mm 2 mps 751 mmHg 52%
16:00 +26°C° 0 mm 2 mps 751 mmHg 55%
17:00 +26°C° 0 mm 2 mps 751 mmHg 57%
18:00 +24°C° 0 mm 2 mps 751 mmHg 64%
19:00 +23°C° 0 mm 1 mps 751 mmHg 70%
20:00 +21°C° 0 mm 1 mps 751 mmHg 77%
21:00 +20°C° 0 mm 1 mps 751 mmHg 78%
22:00 +19°C° 0 mm 1 mps 751 mmHg 79%
23:00 +18°C° 0 mm 1 mps 751 mmHg 81%

20 July, Monday

Time Temperature Precipitation Wind Pressure Humidity
00:00 +16°C° 0 mm 1 mps 751 mmHg 82%
01:00 +16°C° 0 mm 1 mps 751 mmHg 84%
02:00 +15°C° 0 mm 1 mps 751 mmHg 86%
03:00 +15°C° 0 mm 1 mps 750 mmHg 86%
04:00 +15°C° 0 mm 1 mps 750 mmHg 86%
05:00 +15°C° 0 mm 1 mps 750 mmHg 86%
06:00 +19°C° 0 mm 1 mps 750 mmHg 79%
07:00 +21°C° 0 mm 1 mps 750 mmHg 72%
08:00 +23°C° 0 mm 1 mps 750 mmHg 65%
09:00 +25°C° 0.1 mm 1 mps 750 mmHg 60%
10:00 +26°C° 0.1 mm 1 mps 749 mmHg 55%
11:00 +27°C° 0.1 mm 1 mps 749 mmHg 50%
12:00 +27°C° 0.1 mm 1 mps 749 mmHg 50%
13:00 +27°C° 0.1 mm 1 mps 748 mmHg 49%
14:00 +27°C° 0.1 mm 1 mps 748 mmHg 49%
15:00 +27°C° 0 mm 1 mps 748 mmHg 50%
16:00 +27°C° 0 mm 1 mps 747 mmHg 51%
17:00 +27°C° 0 mm 1 mps 747 mmHg 52%
18:00 +25°C° 0 mm 1 mps 747 mmHg 58%
19:00 +23°C° 0 mm 1 mps 747 mmHg 65%
20:00 +20°C° 0 mm 0 mps 746 mmHg 71%
21:00 +19°C° 0 mm 0 mps 746 mmHg 73%
22:00 +18°C° 0 mm 0 mps 746 mmHg 74%
23:00 +16°C° 0 mm 0 mps 746 mmHg 76%
Show more